Find Starlink 36735

NORAD ID: 68976 Int'l Des: 2026-099 Owner: SPXS Country: US Constellation: starlink operational
LEOCIRCULAR

リアルタイム位置

3D地球を読み込み中...

Starlink 36735について

説明を読み込み中...

次回通過

Passes for default location (London). Set your location on the main map for personalized predictions.

高度履歴

Loading altitude history...

軌道要素

1 68976C 26099AB 26125.79562500 -.01407500 00000+0 -20971-2 0 1252
2 68976 53.1615 7.4194 0000285 105.9942 271.0811 16.04797921 16
Epoch: May 5, 2026 • Age: 31 hours

現在のステータス

高度 265.5 km
速度 7.75 km/s
衛星直下点 19.93°N, 49.98°E
打ち上げ日 May 1, 2026
運用期間 4 days
タイプ internet

技術仕様

分類 Payload
質量 575.00 kg
乾燥質量 530.00 kg
総質量 575.00 kg
長さ 0.30 m
直径 4.10 m
スパン 29.00 m
形状 Box + pan
製造者 SPXS
バスタイプ Starlink V2MO
フェーズステータス In Orbit
所有者/国 SPXS/US

Most Searched